Regional Weather Roundup
Issued by NWS

Home | Current Version | Previous Version | Text Only | Print | Product List | Glossary On
Versions: 1 2 3 4 5 6 7 8 9 10 11 12 13 14 15 16 17 18 19 20 21 22 23 24 25 26 27 28
000
ASUS44 KJAN 201410
RWRMS

MISSISSIPPI HOURLY WEATHER ROUNDUP
NATIONAL WEATHER SERVICE JACKSON MS
900 AM CDT FRI OCT 20 2017

NOTE: "FAIR: INDICATES FEW OR NO CLOUDS BELOW 12,000 FEET WITH NO
SIGNIFICANT WEATHER AND/OR OBSTRUCTIONS TO VISIBILITY.

MSZ001>002-007>008-010>013-018>021-025>028-034>036-201500-
NORTHWEST MISSISSIPPI

CITY           SKY/WX    TMP DP  RH WIND       PRES   REMARKS
BATESVILLE     FAIR      55  54  95 CALM      30.26R
CLARKSDALE       N/A     61  61 100 SE5       30.25R
CLEVELAND      FAIR      64  59  83 E6        30.23R
GREENWOOD      MOSUNNY   59  54  83 E5        30.24R
GREENVILLE     CLOUDY    61  55  81 E6        30.22R
OLIVE BRANCH   PTSUNNY  N/A N/A N/A CALM      30.25R
OXFORD         FAIR      57  54  88 SE6       30.28R
TUNICA           N/A    N/A N/A N/A CALM      30.26R
WINONA         FAIR      54  54 100 CALM      30.26R
$$

MSZ003>006-009-014>017-022>024-029>033-037>039-201500-
NORTHEAST MISSISSIPPI

CITY           SKY/WX    TMP DP  RH WIND       PRES   REMARKS
COLUMBUS AFB   SUNNY     56  55  99 CALM      30.27R
CORINTH        FAIR      50  50 100 CALM      30.28R
GOLDN TRIANGLE MOSUNNY   58  53  84 CALM      30.28R
STARKVILLE     FAIR      54  54 100 CALM      30.28R
TUPELO         CLOUDY    54  50  86 N3        30.28R
$$

MSZ040-058-201500-
CENTRAL MISSISSIPPI

CITY           SKY/WX    TMP DP  RH WIND       PRES   REMARKS
JACKSON INTL   PTSUNNY   65  58  78 CALM      30.22R
JACKSON HAWKNS PTSUNNY   63  60  90 VRB3      30.22R
MADISON        FAIR      63  57  82 E5        30.22R
MERIDIAN KEY   MOSUNNY   62  58  86 N5        30.25R
MERIDIAN NAS   NOT AVBL
RAYMOND        FAIR      61  59  94 CALM      30.21S
VICKSBURG VKS  SUNNY     63  57  82 E3        30.22R
$$

MSZ059>079-201500-
SOUTH MISSISSIPPI

CITY           SKY/WX    TMP DP  RH WIND       PRES   REMARKS
HATTIESBURG    MOSUNNY   63  59  87 VRB3      30.22R
LAUREL         FAIR      62  60  91 E5        30.23S
MCCOMB         MOSUNNY   65  58  78 VRB3      30.19R
NATCHEZ        CLOUDY    65  59  81 E7        30.19R
PINE BELT      MOSUNNY   63  58  83 NE5       30.23R
$$

MSZ080>082-201500-
COASTAL MISSISSIPPI

CITY           SKY/WX    TMP DP  RH WIND       PRES   REMARKS
BAY ST LOUIS   MOSUNNY   66  61  82 NE6       30.18
BILOXI         MOSUNNY   71  62  74 E12       30.17R
PASCAGOULA     MOSUNNY   70  60  70 E7        30.19R
GULFPORT       MOSUNNY   69  62  78 E6        30.17R
$$

LAZ007>009-015>016-023>026-201500-
NORTHEAST LOUISIANA

CITY           SKY/WX    TMP DP  RH WIND       PRES   REMARKS
BASTROP        FAIR      61  60  97 CALM      30.21R
TALLULAH/VBURG CLOUDY    64  59  83 SE5       30.21R
VIDALIA          N/A    N/A N/A N/A MISG      30.18R
$$




USA.gov is the U.S. government's official web portal to all federal, state and local government web resources and services.